IRNSS R1A

导读

IRNSS R1A是印度区域导航卫星系统(IRNSS)的首颗导航卫星,于2013年7月1日由印度空间研究组织发射升空,运行于地球同步轨道。它搭载原子钟与导航载荷,可提供高精度定位、导航和授时服务,覆盖印度及周边1500公里范围,是印度搭建自主导航系统的关键一步,降低了对国外导航系统的依赖。

基本信息
目录编号:
39199
目录名称:
IRNSS R1A
国际标识:
2013-034A
轨道中心:
EARTH
卫星名称:
IRNSS R1A
卫星全名:
--
卫星状态:
在轨 (已飞行4767 天)
发射日期:
2013-07-01 UTC
国别 :
印度 (IN)
星等 :
--
轨道信息
数据来源 国际轨道数据
星历时间: 2026-07-11T01:17:26+0800
轨道信息已过期9天
半长轴: 42161.897km
偏心率: 0.0017567
轨道倾角: 35.770°
近地点辐角 183.446°
升交点赤经 63.533°
平近点角 356.299°
近地点: 35709.694km
远地点: 35857.826km
周期: 1435.952分钟
每日圈数: 1.002819
详细信息
使用方式:
暂无
2D轨道图
3D轨道图
轨道高度分析图
轨道倾角分析图
轨道综合分析图
查看轨道综合分析图